Overview Statistics Trail Chart Weather Telemetry Raw packets
 

This is the latest recevied weather packets stored in our database for station/object OH2HCY. If no packets are shown the sender has not sent any weather packets the latest 10 day(s).

<< 1 2 3 4 5 6 >>
Time Temp. Humidity Pressure Rain* Wind** Luminosity Snow
1788549570 12.22° C 84% 993 hPa - - - -
1788549049 12.78° C 83% 993 hPa - - - -
1788548545 12.78° C 83% 993.1 hPa - - - -
1788548010 12.78° C 82% 993.2 hPa - - - -
1788547460 12.78° C 81% 993.1 hPa - - - -
1788546925 13.33° C 80% 993.2 hPa - - - -
1788546372 13.33° C 80% 993.2 hPa - - - -
1788545832 13.33° C 80% 993.2 hPa - - - -
1788545315 13.33° C 81% 993.3 hPa - - - -
1788544779 13.33° C 81% 993.3 hPa - - - -
1788544235 13.33° C 80% 993.2 hPa - - - -
1788543676 13.33° C 79% 993.2 hPa - - - -
1788543120 13.89° C 80% 993.1 hPa - - - -
1788542610 13.89° C 80% 993.1 hPa - - - -
1788542070 13.89° C 79% 993 hPa - - - -
1788541526 14.44° C 77% 992.9 hPa - - - -
1788540978 14.44° C 77% 992.9 hPa - - - -
1788540450 14.44° C 77% 992.9 hPa - - - -
1788539890 15° C 76% 992.8 hPa - - - -
1788539365 14.44° C 77% 993 hPa - - - -
1788538852 14.44° C 77% 993 hPa - - - -
1788538318 15° C 75% 992.9 hPa - - - -
1788537745 15° C 74% 992.9 hPa - - - -
1788537185 15° C 72% 992.8 hPa - - - -
1788536645 15.56° C 70% 992.8 hPa - - - -

* Rain since midnight (hover to see other rain measurements)
** Current wind speed in m/s (hover to see current wind gust speed)